SCP
0 -0 -0 -0 -0 -0 -0 0 -0 0 0 0 0 0 0 0 0 0 0 0 0 0
0 -0 -0 -0 -0 -0 -0 -0 -0 -0 0 0 0 0 0 0 0 0 0 0 0 0
0 -0 -0 -0 -0 -0 -0 -0 -0 -0 -0 0 0 0 0 0 0 0 0 0 0 0
0 -0 0 0 0 -0 -0 -0 -0 -0 -0 0 0 0 0 0 0 0 0 0 0 0
0 0 0 0 0 -0 -0 -0 -0 -0 -0 0 0 0 0 0 0 0 0 0 0 0
0 0 0 0 0 0 -0 -0 -0 -0 -0 0 0 0 0 0 0 0 0 0 0 0
0 0 0 0 0 0 -0 -0 0 -0 0 0 0 0 0 0 0 0 0 0 0 0
0 0 0 0 0 0 0 -0 0 0 0 0 0 0 0 0 0 0 0 0 0 0
0 0 0 0 0 0 -0 -0 0 0 0 0 0 0 0 0 0 0 0 0 0 0
-0 -0 0 0 0 -0 -0 0 0 0 0 0 0 0 0 0 0 0 0 0 0 0
-0 -0 0 0 -0 -0 0 0 0 0 0 0 0 0 0 0 0 0 0 0 0 0
-0 0 -0 -0 -0 0 0 0 0 0 0 0 0 0 0 0 0 0 0 0 0 0
0 0 -0 -0 -0 -0 0 0 0 0 0 0 0 0 -0 0 0 0 0 0 0 0
0 -0 -0 0 -0 0 0 0 0 -0 0 0 0 0 -0 0 0 0 0 0 0 0
Wind_Speed_500mb
63 70 69 62 58 69 68 71 94 85 89 61 101 109 111 112 105 99 97 93 90 87
70 67 63 57 62 62 57 77 76 80 84 86 78 114 110 110 108 100 95 94 94 89
68 68 64 60 62 64 67 67 65 77 77 84 81 113 114 106 105 105 96 95 96 96
64 64 55 54 55 63 64 66 62 58 65 70 73 106 104 120 108 105 103 96 92 94
57 55 50 52 52 58 65 70 54 51 53 68 77 78 104 105 111 114 106 99 95 95
49 48 53 55 51 53 62 50 49 56 50 55 66 58 102 72 80 96 98 100 99 96
43 48 54 55 49 46 49 46 62 49 36 61 73 50 45 82 75 78 87 95 91 87
44 47 51 49 46 44 42 33 55 32 27 55 50 39 28 42 60 71 65 52 61 58
45 46 45 46 44 42 41 28 43 30 24 43 38 31 31 35 48 44 50 58 68 77
46 45 40 41 42 36 40 33 30 25 14 18 22 26 32 39 50 59 78 87 90 87
44 42 40 39 37 30 26 22 16 19 13 10 27 39 51 60 78 89 91 90 84 78
41 40 36 36 31 26 14 2 19 22 24 26 38 51 79 83 90 93 92 84 80 78
35 33 29 27 21 15 5 8 24 40 45 54 57 53 62 80 99 99 97 91 86 79
30 25 23 22 15 11 16 23 36 50 56 63 75 81 79 82 85 91 95 93 79 70
Wind_Direction_500mb
296 301 286 277 285 287 296 295 301 290 286 296 225 223 226 229 227 228 229 226 224 226
297 302 290 283 279 287 295 284 292 289 297 280 248 224 220 223 224 226 226 227 227 225
295 303 294 288 287 289 274 280 283 289 287 288 296 227 214 219 222 224 224 224 224 224
296 300 296 291 288 287 273 274 273 297 292 296 306 232 233 224 220 222 224 224 225 226
299 301 299 297 293 291 281 271 276 283 278 286 273 257 232 226 220 223 223 223 224 228
302 301 301 303 301 288 280 283 281 265 272 285 287 285 231 220 213 212 218 224 225 228
303 305 311 312 311 297 290 285 290 263 269 279 275 278 263 214 219 216 217 211 214 215
315 317 319 322 315 296 290 296 310 264 249 279 281 260 253 215 212 214 210 207 200 191
319 322 323 326 319 302 295 297 292 275 245 254 246 226 217 210 189 180 175 154 143 134
324 321 323 326 319 307 298 294 296 240 211 244 222 186 182 170 149 148 140 137 135 134
328 328 327 331 324 327 310 298 259 189 184 157 179 171 157 147 140 141 141 140 140 137
335 330 337 337 338 331 324 206 143 123 132 143 142 165 153 150 139 133 128 124 122 121
342 341 346 347 346 353 13 122 128 129 133 138 139 145 147 141 136 130 125 121 123 128
357 359 4 3 14 58 122 130 123 124 131 133 136 143 144 140 137 131 130 132 132 124
Wind_Speed_850mb
63 70 69 62 58 69 68 71 94 85 89 61 101 109 111 112 105 99 97 93 90 87
70 67 63 57 62 62 57 77 76 80 84 86 78 114 110 110 108 100 95 94 94 89
68 68 64 60 62 64 67 67 65 77 77 84 81 113 114 106 105 105 96 95 96 96
64 64 55 54 55 63 64 66 62 58 65 70 73 106 104 120 108 105 103 96 92 94
57 55 50 52 52 58 65 70 54 51 53 68 77 78 104 105 111 114 106 99 95 95
49 48 53 55 51 53 62 50 49 56 50 55 66 58 102 72 80 96 98 100 99 96
43 48 54 55 49 46 49 46 62 49 36 61 73 50 45 82 75 78 87 95 91 87
44 47 51 49 46 44 42 33 55 32 27 55 50 39 28 42 60 71 65 52 61 58
45 46 45 46 44 42 41 28 43 30 24 43 38 31 31 35 48 44 50 58 68 77
46 45 40 41 42 36 40 33 30 25 14 18 22 26 32 39 50 59 78 87 90 87
44 42 40 39 37 30 26 22 16 19 13 10 27 39 51 60 78 89 91 90 84 78
41 40 36 36 31 26 14 2 19 22 24 26 38 51 79 83 90 93 92 84 80 78
35 33 29 27 21 15 5 8 24 40 45 54 57 53 62 80 99 99 97 91 86 79
30 25 23 22 15 11 16 23 36 50 56 63 75 81 79 82 85 91 95 93 79 70
Wind_Direction_850mb
296 301 286 277 285 287 296 295 301 290 286 296 225 223 226 229 227 228 229 226 224 226
297 302 290 283 279 287 295 284 292 289 297 280 248 224 220 223 224 226 226 227 227 225
295 303 294 288 287 289 274 280 283 289 287 288 296 227 214 219 222 224 224 224 224 224
296 300 296 291 288 287 273 274 273 297 292 296 306 232 233 224 220 222 224 224 225 226
299 301 299 297 293 291 281 271 276 283 278 286 273 257 232 226 220 223 223 223 224 228
302 301 301 303 301 288 280 283 281 265 272 285 287 285 231 220 213 212 218 224 225 228
303 305 311 312 311 297 290 285 290 263 269 279 275 278 263 214 219 216 217 211 214 215
315 317 319 322 315 296 290 296 310 264 249 279 281 260 253 215 212 214 210 207 200 191
319 322 323 326 319 302 295 297 292 275 245 254 246 226 217 210 189 180 175 154 143 134
324 321 323 326 319 307 298 294 296 240 211 244 222 186 182 170 149 148 140 137 135 134
328 328 327 331 324 327 310 298 259 189 184 157 179 171 157 147 140 141 141 140 140 137
335 330 337 337 338 331 324 206 143 123 132 143 142 165 153 150 139 133 128 124 122 121
342 341 346 347 346 353 13 122 128 129 133 138 139 145 147 141 136 130 125 121 123 128
357 359 4 3 14 58 122 130 123 124 131 133 136 143 144 140 137 131 130 132 132 124